Location: Newark
(44.2886°N, 4.8431°E)
Time: 15:19:27
(UTC+00:00)

ZACube-1 - Pass Details

Date: 03 December 2020
Orbit: 584 x 665 km, 97.6° (Epoch: 14 January)

Event Time Altitude Azimuth Distance (km) Brightness Sun altitude
Rises 06:12:06 0° 356° (N) 2,831 ? -8.3°
Reaches altitude 10° 06:14:49 10° 337° (NNW) 1,933 ? -7.8°
Maximum altitude 06:17:35 17° 296° (WNW) 1,512 ? -7.4°
Drops below altitude 10° 06:20:23 10° 254° (WSW) 1,947 ? -6.9°
Sets 06:23:09 0° 235° (SW) 2,861 ? -6.5°
